Time,TemperatureF,DewpointF,PressureIn,WindDirection,WindDirectionDegrees,WindSpeedMPH,WindSpeedGustMPH,Humidity,HourlyPrecipIn,Conditions,Clouds,dailyrainin,SoftwareType,DateUTC
2013-08-01 00:04:00,82.5,70.0,29.94,SSE,148,0.0,0.0,66,0.00,CLR,,0.00,WeatherDisplay:10.37,2013-08-01 05:04:00,
2013-08-01 00:09:00,82.4,69.9,29.94,SSE,148,0.0,0.0,66,0.00,CLR,,0.00,WeatherDisplay:10.37,2013-08-01 05:09:00,
2013-08-01 00:14:00,82.3,69.8,29.94,SSE,148,0.0,0.0,66,0.00,CLR,,0.00,WeatherDisplay:10.37,2013-08-01 05:14:00,
2013-08-01 00:19:00,82.2,69.7,29.94,SSE,148,0.0,0.0,66,0.00,CLR,,0.00,WeatherDisplay:10.37,2013-08-01 05:19:00,
2013-08-01 00:24:00,82.1,70.1,29.94,SSE,148,0.0,0.0,67,0.00,CLR,,0.00,WeatherDisplay:10.37,2013-08-01 05:24:00,
2013-08-01 00:29:00,82.0,70.0,29.94,SSE,148,0.0,0.0,67,0.00,CLR,,0.00,WeatherDisplay:10.37,2013-08-01 05:29:00,
2013-08-01 00:34:00,81.9,69.9,29.94,SSE,148,0.0,0.0,67,0.00,CLR,,0.00,WeatherDisplay:10.37,2013-08-01 05:34:00,
2013-08-01 00:39:00,81.8,69.8,29.94,SSE,148,0.0,0.0,67,0.00,CLR,,0.00,WeatherDisplay:10.37,2013-08-01 05:39:00,
2013-08-01 00:44:00,81.7,70.1,29.94,SSE,148,0.0,0.0,68,0.00,CLR,,0.00,WeatherDisplay:10.37,2013-08-01 05:44:00,
2013-08-01 00:49:00,81.6,70.0,29.94,SSE,148,0.0,0.0,68,0.00,CLR,,0.00,WeatherDisplay:10.37,2013-08-01 05:49:00,
2013-08-01 00:54:00,81.5,69.9,29.95,SSE,148,0.0,0.0,68,0.00,CLR,,0.00,WeatherDisplay:10.37,2013-08-01 05:54:00,
2013-08-01 01:00:00,81.5,69.9,29.95,SSE,148,0.0,0.0,68,0.00,CLR,,0.00,WeatherDisplay:10.37,2013-08-01 06:00:00,
2013-08-01 01:05:00,81.4,69.8,29.95,SSE,148,0.0,0.0,68,0.00,CLR,,0.00,WeatherDisplay:10.37,2013-08-01 06:05:00,
2013-08-01 01:10:00,81.3,69.7,29.95,SSE,148,0.0,0.0,68,0.00,CLR,,0.00,WeatherDisplay:10.37,2013-08-01 06:10:00,
2013-08-01 01:15:00,81.2,69.6,29.94,SSE,148,0.0,0.0,68,0.00,CLR,,0.00,WeatherDisplay:10.37,2013-08-01 06:15:00,
2013-08-01 01:20:00,81.1,70.0,29.94,SSE,148,0.0,0.0,69,0.00,CLR,,0.00,WeatherDisplay:10.37,2013-08-01 06:20:00,
2013-08-01 01:25:00,80.9,69.3,29.94,SSE,148,1.2,1.2,68,0.00,CLR,,0.00,WeatherDisplay:10.37,2013-08-01 06:25:00,
2013-08-01 01:30:00,80.8,69.2,29.94,SSE,148,2.3,2.3,68,0.00,CLR,,0.00,WeatherDisplay:10.37,2013-08-01 06:30:00,
2013-08-01 01:35:00,80.6,69.1,29.94,SSE,148,3.5,3.5,68,0.00,CLR,,0.00,WeatherDisplay:10.37,2013-08-01 06:35:00,
2013-08-01 01:40:00,80.4,68.9,29.94,SSE,148,5.8,5.8,68,0.00,CLR,,0.00,WeatherDisplay:10.37,2013-08-01 06:40:00,
2013-08-01 01:45:00,80.3,68.8,29.94,SSE,148,0.0,0.0,68,0.00,CLR,,0.00,WeatherDisplay:10.37,2013-08-01 06:45:00,
2013-08-01 01:50:00,80.2,68.7,29.94,SSE,148,3.5,3.5,68,0.00,CLR,,0.00,WeatherDisplay:10.37,2013-08-01 06:50:00,
2013-08-01 01:55:00,80.0,68.5,29.94,SSE,148,0.0,0.0,68,0.00,CLR,,0.00,WeatherDisplay:10.37,2013-08-01 06:55:00,
2013-08-01 02:00:00,79.9,68.8,29.94,SSE,148,0.0,0.0,69,0.00,CLR,,0.00,WeatherDisplay:10.37,2013-08-01 07:00:00,
2013-08-01 02:05:00,79.7,68.6,29.94,SSE,148,0.0,0.0,69,0.00,CLR,,0.00,WeatherDisplay:10.37,2013-08-01 07:05:00,
2013-08-01 02:10:00,79.5,68.9,29.94,SSE,148,0.0,0.0,70,0.00,CLR,,0.00,WeatherDisplay:10.37,2013-08-01 07:10:00,
2013-08-01 02:15:00,79.4,68.8,29.94,SSE,148,0.0,0.0,70,0.00,CLR,,0.00,WeatherDisplay:10.37,2013-08-01 07:15:00,
2013-08-01 02:20:00,79.2,68.6,29.94,SSE,148,2.3,2.3,70,0.00,CLR,,0.00,WeatherDisplay:10.37,2013-08-01 07:20:00,
2013-08-01 02:25:00,79.1,68.9,29.93,SSE,148,7.0,7.0,71,0.00,CLR,,0.00,WeatherDisplay:10.37,2013-08-01 07:25:00,
2013-08-01 02:30:00,78.9,69.5,29.93,SSE,156,4.6,4.6,73,0.00,CLR,,0.00,WeatherDisplay:10.37,2013-08-01 07:30:00,
2013-08-01 02:35:00,78.8,69.8,29.93,SSE,157,4.6,4.6,74,0.00,CLR,,0.00,WeatherDisplay:10.37,2013-08-01 07:35:00,
2013-08-01 02:40:00,78.7,70.1,29.93,SSE,163,4.6,4.6,75,0.00,CLR,,0.00,WeatherDisplay:10.37,2013-08-01 07:40:00,
2013-08-01 02:45:00,78.6,70.4,29.93,SSE,167,4.6,4.6,76,0.00,CLR,,0.00,WeatherDisplay:10.37,2013-08-01 07:45:00,
2013-08-01 02:50:00,78.6,70.8,29.94,South,171,6.0,6.0,77,0.00,CLR,,0.00,WeatherDisplay:10.37,2013-08-01 07:50:00,
2013-08-01 02:55:00,78.5,70.7,29.94,South,173,6.9,6.9,77,0.00,CLR,,0.00,WeatherDisplay:10.37,2013-08-01 07:55:00,
2013-08-01 03:01:00,78.5,71.1,29.94,South,172,6.0,6.0,78,0.00,CLR,,0.00,WeatherDisplay:10.37,2013-08-01 08:01:00,
2013-08-01 03:07:00,78.4,71.3,29.94,South,173,5.8,5.8,79,0.00,CLR,,0.00,WeatherDisplay:10.37,2013-08-01 08:07:00,
2013-08-01 03:12:00,78.3,71.2,29.94,South,173,3.5,3.5,79,0.00,CLR,,0.00,WeatherDisplay:10.37,2013-08-01 08:12:00,
2013-08-01 03:18:00,78.2,71.2,29.94,South,173,4.6,4.6,79,0.00,CLR,,0.00,WeatherDisplay:10.37,2013-08-01 08:18:00,
2013-08-01 03:23:00,78.1,71.1,29.94,South,173,0.0,0.0,79,0.00,CLR,,0.00,WeatherDisplay:10.37,2013-08-01 08:23:00,
2013-08-01 03:28:00,78.0,71.3,29.94,South,173,0.0,0.0,80,0.00,CLR,,0.00,WeatherDisplay:10.37,2013-08-01 08:28:00,
2013-08-01 03:33:00,77.9,71.2,29.94,South,177,7.0,7.0,80,0.00,CLR,,0.00,WeatherDisplay:10.37,2013-08-01 08:33:00,
2013-08-01 03:38:00,77.7,70.7,29.94,South,180,6.9,6.9,79,0.00,CLR,,0.00,WeatherDisplay:10.37,2013-08-01 08:38:00,
2013-08-01 03:43:00,77.6,70.6,29.94,SSW,197,12.0,12.0,79,0.00,CLR,,0.00,WeatherDisplay:10.37,2013-08-01 08:43:00,
2013-08-01 03:48:00,77.5,70.5,29.94,SSW,197,10.4,10.4,79,0.00,CLR,,0.00,WeatherDisplay:10.37,2013-08-01 08:48:00,
2013-08-01 03:54:00,77.5,70.8,29.94,SSW,195,4.6,4.6,80,0.00,CLR,,0.00,WeatherDisplay:10.37,2013-08-01 08:54:00,
2013-08-01 04:00:00,77.5,70.8,29.94,SSW,196,4.6,4.6,80,0.00,CLR,,0.00,WeatherDisplay:10.37,2013-08-01 09:00:00,
2013-08-01 04:05:00,77.4,70.7,29.94,SSW,195,4.6,4.6,80,0.00,CLR,,0.00,WeatherDisplay:10.37,2013-08-01 09:05:00,
2013-08-01 04:12:00,77.3,70.6,29.94,SSW,196,0.0,0.0,80,0.00,CLR,,0.00,WeatherDisplay:10.37,2013-08-01 09:12:00,
2013-08-01 04:18:00,77.2,70.5,29.94,SSW,195,0.0,0.0,80,0.00,CLR,,0.00,WeatherDisplay:10.37,2013-08-01 09:18:00,
2013-08-01 04:24:00,77.1,70.5,29.94,SSW,196,0.0,0.0,80,0.00,CLR,,0.00,WeatherDisplay:10.37,2013-08-01 09:24:00,
2013-08-01 04:29:00,77.1,70.5,29.94,SSW,196,0.0,0.0,80,0.00,CLR,,0.00,WeatherDisplay:10.37,2013-08-01 09:29:00,
2013-08-01 04:34:00,77.0,70.7,29.94,SSW,196,0.0,0.0,81,0.00,CLR,,0.00,WeatherDisplay:10.37,2013-08-01 09:34:00,
2013-08-01 04:39:00,76.9,70.6,29.94,SSW,195,0.0,0.0,81,0.00,CLR,,0.00,WeatherDisplay:10.37,2013-08-01 09:39:00,
2013-08-01 04:45:00,76.7,70.4,29.94,SSW,195,3.5,3.5,81,0.00,CLR,,0.00,WeatherDisplay:10.37,2013-08-01 09:45:00,
2013-08-01 04:50:00,76.6,70.3,29.94,SSW,195,0.0,0.0,81,0.00,CLR,,0.00,WeatherDisplay:10.37,2013-08-01 09:50:00,
2013-08-01 04:57:00,76.5,70.2,29.94,SSW,196,0.0,0.0,81,0.00,CLR,,0.00,WeatherDisplay:10.37,2013-08-01 09:57:00,
2013-08-01 05:02:00,76.4,70.1,29.94,SSW,196,0.0,0.0,81,0.00,CLR,,0.00,WeatherDisplay:10.37,2013-08-01 10:02:00,
2013-08-01 05:08:00,76.4,70.1,29.94,SSW,195,0.0,0.0,81,0.00,CLR,,0.00,WeatherDisplay:10.37,2013-08-01 10:08:00,
2013-08-01 05:14:00,76.3,70.0,29.95,SSW,196,0.0,0.0,81,0.00,CLR,,0.00,WeatherDisplay:10.37,2013-08-01 10:14:00,
2013-08-01 05:19:00,76.2,69.9,29.95,SSW,196,0.0,0.0,81,0.00,CLR,,0.00,WeatherDisplay:10.37,2013-08-01 10:19:00,
2013-08-01 05:25:00,76.1,69.8,29.95,SSW,195,0.0,0.0,81,0.00,CLR,,0.00,WeatherDisplay:10.37,2013-08-01 10:25:00,
2013-08-01 05:31:00,76.0,69.7,29.95,SSW,195,0.0,0.0,81,0.00,CLR,,0.00,WeatherDisplay:10.37,2013-08-01 10:31:00,
2013-08-01 05:36:00,75.9,69.6,29.95,SSW,195,0.0,0.0,81,0.00,CLR,,0.00,WeatherDisplay:10.37,2013-08-01 10:36:00,
2013-08-01 05:41:00,75.8,69.6,29.95,SSW,196,0.0,0.0,81,0.00,CLR,,0.00,WeatherDisplay:10.37,2013-08-01 10:41:00,
2013-08-01 05:47:00,75.6,69.4,29.95,SSW,196,0.0,0.0,81,0.00,CLR,,0.00,WeatherDisplay:10.37,2013-08-01 10:47:00,
2013-08-01 05:52:00,75.5,69.3,29.95,SSW,196,0.0,0.0,81,0.00,CLR,,0.00,WeatherDisplay:10.37,2013-08-01 10:52:00,
2013-08-01 05:58:00,75.4,69.2,29.96,SSW,196,0.0,0.0,81,0.00,CLR,,0.00,WeatherDisplay:10.37,2013-08-01 10:58:00,
2013-08-01 06:03:00,75.3,69.1,29.96,SSW,196,0.0,0.0,81,0.00,CLR,,0.00,WeatherDisplay:10.37,2013-08-01 11:03:00,
2013-08-01 06:08:00,75.2,69.0,29.96,SSW,196,0.0,0.0,81,0.00,CLR,,0.00,WeatherDisplay:10.37,2013-08-01 11:08:00,
2013-08-01 06:13:00,75.2,69.0,29.97,SSW,196,0.0,0.0,81,0.00,CLR,,0.00,WeatherDisplay:10.37,2013-08-01 11:13:00,
2013-08-01 06:18:00,75.0,69.1,29.97,SSW,195,0.0,0.0,82,0.00,CLR,,0.00,WeatherDisplay:10.37,2013-08-01 11:18:00,
2013-08-01 06:24:00,74.8,68.9,29.97,SSW,196,0.0,0.0,82,0.00,CLR,,0.00,WeatherDisplay:10.37,2013-08-01 11:24:00,
2013-08-01 06:29:00,74.6,68.7,29.97,SSW,195,0.0,0.0,82,0.00,CLR,,0.00,WeatherDisplay:10.37,2013-08-01 11:29:00,
2013-08-01 06:35:00,74.5,68.6,29.96,SSW,195,0.0,0.0,82,0.00,CLR,,0.00,WeatherDisplay:10.37,2013-08-01 11:35:00,
2013-08-01 06:40:00,74.3,68.4,29.97,SSW,195,0.0,0.0,82,0.00,CLR,,0.00,WeatherDisplay:10.37,2013-08-01 11:40:00,
2013-08-01 06:45:00,74.2,68.3,29.97,SSW,196,0.0,0.0,82,0.00,CLR,,0.00,WeatherDisplay:10.37,2013-08-01 11:45:00,
2013-08-01 06:50:00,74.1,68.3,29.97,SSW,195,0.0,0.0,82,0.00,CLR,,0.00,WeatherDisplay:10.37,2013-08-01 11:50:00,
2013-08-01 06:56:00,73.9,68.1,29.97,SSW,196,0.0,0.0,82,0.00,CLR,,0.00,WeatherDisplay:10.37,2013-08-01 11:56:00,
2013-08-01 07:03:00,73.8,68.3,29.97,SSW,195,0.0,0.0,83,0.00,CLR,,0.00,WeatherDisplay:10.37,2013-08-01 12:03:00,
2013-08-01 07:08:00,73.7,68.6,29.97,SSW,196,0.0,0.0,84,0.00,CLR,,0.00,WeatherDisplay:10.37,2013-08-01 12:08:00,
2013-08-01 07:14:00,73.6,68.5,29.97,SSW,195,0.0,0.0,84,0.00,CLR,,0.00,WeatherDisplay:10.37,2013-08-01 12:14:00,
2013-08-01 07:19:00,73.6,68.8,29.97,SSW,196,0.0,0.0,85,0.00,CLR,,0.00,WeatherDisplay:10.37,2013-08-01 12:19:00,
2013-08-01 07:25:00,73.5,68.7,29.98,SSW,196,0.0,0.0,85,0.00,CLR,,0.00,WeatherDisplay:10.37,2013-08-01 12:25:00,
2013-08-01 07:30:00,73.5,69.1,29.98,SSW,195,0.0,0.0,86,0.00,CLR,,0.00,WeatherDisplay:10.37,2013-08-01 12:30:00,
2013-08-01 07:35:00,73.6,69.2,29.97,SSW,196,0.0,0.0,86,0.00,CLR,,0.00,WeatherDisplay:10.37,2013-08-01 12:35:00,
2013-08-01 07:40:00,73.6,69.5,29.97,SSW,196,0.0,0.0,87,0.00,CLR,,0.00,WeatherDisplay:10.37,2013-08-01 12:40:00,
2013-08-01 07:45:00,73.7,69.6,29.97,SSW,195,0.0,0.0,87,0.00,CLR,,0.00,WeatherDisplay:10.37,2013-08-01 12:45:00,
2013-08-01 07:50:00,73.8,69.7,29.97,SSW,196,0.0,0.0,87,0.00,CLR,,0.00,WeatherDisplay:10.37,2013-08-01 12:50:00,
2013-08-01 07:56:00,74.0,70.2,29.97,SSW,196,0.0,0.0,88,0.00,CLR,,0.00,WeatherDisplay:10.37,2013-08-01 12:56:00,
2013-08-01 08:02:00,74.3,70.5,29.97,SSW,195,1.2,1.2,88,0.00,CLR,,0.00,WeatherDisplay:10.37,2013-08-01 13:02:00,
2013-08-01 08:08:00,74.6,70.8,29.97,SSW,196,0.0,0.0,88,0.00,CLR,,0.00,WeatherDisplay:10.37,2013-08-01 13:08:00,
2013-08-01 08:14:00,75.0,71.2,29.98,SSW,196,0.0,0.0,88,0.00,CLR,,0.00,WeatherDisplay:10.37,2013-08-01 13:14:00,
2013-08-01 08:19:00,75.4,71.6,29.97,SSW,196,0.0,0.0,88,0.00,CLR,,0.00,WeatherDisplay:10.37,2013-08-01 13:19:00,
2013-08-01 08:24:00,75.8,72.0,29.97,SSW,196,0.0,0.0,88,0.00,CLR,,0.00,WeatherDisplay:10.37,2013-08-01 13:24:00,
2013-08-01 08:29:00,76.3,72.5,29.97,SSW,196,6.9,6.9,88,0.00,CLR,,0.00,WeatherDisplay:10.37,2013-08-01 13:29:00,
2013-08-01 08:34:00,76.8,72.6,29.97,SSW,196,4.6,4.6,87,0.00,CLR,,0.00,WeatherDisplay:10.37,2013-08-01 13:34:00,
2013-08-01 08:42:00,77.4,72.9,29.97,SSW,201,4.0,4.0,86,0.00,CLR,,0.00,WeatherDisplay:10.37,2013-08-01 13:42:00,
2013-08-01 08:47:00,77.8,72.9,29.97,SSW,201,4.6,4.6,85,0.00,CLR,,0.00,WeatherDisplay:10.37,2013-08-01 13:47:00,
2013-08-01 08:52:00,78.3,73.1,29.97,SSW,200,0.0,0.0,84,0.00,CLR,,0.00,WeatherDisplay:10.37,2013-08-01 13:52:00,
2013-08-01 08:57:00,78.7,73.1,29.98,SSW,207,6.9,6.9,83,0.00,CLR,,0.00,WeatherDisplay:10.37,2013-08-01 13:57:00,
2013-08-01 09:03:00,79.1,73.1,29.97,SSW,206,3.5,3.5,82,0.00,CLR,,0.00,WeatherDisplay:10.37,2013-08-01 14:03:00,
2013-08-01 09:08:00,79.5,73.2,29.97,SSW,211,6.9,6.9,81,0.00,CLR,,0.00,WeatherDisplay:10.37,2013-08-01 14:08:00,
2013-08-01 09:13:00,79.8,73.1,29.97,SSW,211,5.8,5.8,80,0.00,CLR,,0.00,WeatherDisplay:10.37,2013-08-01 14:13:00,
2013-08-01 09:19:00,80.1,73.4,29.97,SSW,213,6.0,6.0,80,0.00,CLR,,0.00,WeatherDisplay:10.37,2013-08-01 14:19:00,
2013-08-01 09:25:00,80.3,73.2,29.97,SW,214,7.0,7.0,79,0.00,CLR,,0.00,WeatherDisplay:10.37,2013-08-01 14:25:00,
2013-08-01 09:30:00,80.6,73.1,29.97,SW,223,10.4,10.4,78,0.00,CLR,,0.00,WeatherDisplay:10.37,2013-08-01 14:30:00,
2013-08-01 09:35:00,80.8,73.3,29.97,SW,224,2.0,2.0,78,0.00,CLR,,0.00,WeatherDisplay:10.37,2013-08-01 14:35:00,
2013-08-01 09:40:00,81.2,73.3,29.97,SW,223,5.0,5.0,77,0.00,CLR,,0.00,WeatherDisplay:10.37,2013-08-01 14:40:00,
2013-08-01 09:46:00,81.4,73.1,29.97,SW,223,3.0,3.0,76,0.00,CLR,,0.00,WeatherDisplay:10.37,2013-08-01 14:46:00,
2013-08-01 09:52:00,81.9,72.8,29.97,SW,227,2.3,0.0,74,0.00,CLR,,0.00,WeatherDisplay:10.37,2013-08-01 14:52:00,
2013-08-01 09:57:00,82.4,72.5,29.97,SW,229,5.0,5.0,72,0.00,CLR,,0.00,WeatherDisplay:10.37,2013-08-01 14:57:00,
2013-08-01 10:03:00,83.0,73.0,29.98,SW,229,5.8,5.8,72,0.00,CLR,,0.00,WeatherDisplay:10.37,2013-08-01 15:03:00,
2013-08-01 10:08:00,83.4,72.6,29.97,SW,233,3.5,3.5,70,0.00,CLR,,0.00,WeatherDisplay:10.37,2013-08-01 15:08:00,
2013-08-01 10:13:00,83.8,71.2,29.97,SW,231,6.9,6.9,66,0.00,CLR,,0.00,WeatherDisplay:10.37,2013-08-01 15:13:00,
2013-08-01 10:18:00,84.0,71.9,29.97,SW,226,6.9,6.9,67,0.00,CLR,,0.00,WeatherDisplay:10.37,2013-08-01 15:18:00,
2013-08-01 10:23:00,84.2,72.0,29.97,SW,226,3.5,3.5,67,0.00,CLR,,0.00,WeatherDisplay:10.37,2013-08-01 15:23:00,
2013-08-01 10:29:00,84.7,72.5,29.97,SW,217,5.8,5.8,67,0.00,CLR,,0.00,WeatherDisplay:10.37,2013-08-01 15:29:00,
2013-08-01 10:36:00,85.3,71.3,29.97,WSW,237,12.0,12.0,63,0.00,CLR,,0.00,WeatherDisplay:10.37,2013-08-01 15:36:00,
2013-08-01 10:42:00,85.3,70.8,29.97,WSW,237,3.5,3.5,62,0.00,CLR,,0.00,WeatherDisplay:10.37,2013-08-01 15:42:00,
2013-08-01 10:47:00,85.9,71.8,29.97,SW,236,10.0,10.0,63,0.00,CLR,,0.00,WeatherDisplay:10.37,2013-08-01 15:47:00,
2013-08-01 10:52:00,86.1,70.6,29.97,SW,236,4.6,4.6,60,0.00,CLR,,0.00,WeatherDisplay:10.37,2013-08-01 15:52:00,
2013-08-01 10:57:00,86.2,70.7,29.97,SW,236,0.0,0.0,60,0.00,CLR,,0.00,WeatherDisplay:10.37,2013-08-01 15:57:00,
2013-08-01 11:03:00,86.8,70.8,29.97,SW,216,4.6,4.6,59,0.00,CLR,,0.00,WeatherDisplay:10.37,2013-08-01 16:03:00,
2013-08-01 11:08:00,87.0,68.9,29.97,SW,215,6.0,6.0,55,0.00,CLR,,0.00,WeatherDisplay:10.37,2013-08-01 16:08:00,
2013-08-01 11:13:00,87.5,69.3,29.97,South,185,13.0,13.0,55,0.00,CLR,,0.00,WeatherDisplay:10.37,2013-08-01 16:13:00,
2013-08-01 11:19:00,87.8,68.5,29.97,SSW,194,6.9,6.9,53,0.00,CLR,,0.00,WeatherDisplay:10.37,2013-08-01 16:19:00,
2013-08-01 11:25:00,88.1,70.4,29.97,SSW,196,2.3,2.3,56,0.00,CLR,,0.00,WeatherDisplay:10.37,2013-08-01 16:25:00,
2013-08-01 11:31:00,88.3,69.0,29.97,SSW,199,7.0,7.0,53,0.00,CLR,,0.00,WeatherDisplay:10.37,2013-08-01 16:31:00,
2013-08-01 11:36:00,88.4,68.0,29.96,SSW,213,6.9,6.9,51,0.00,CLR,,0.00,WeatherDisplay:10.37,2013-08-01 16:36:00,
2013-08-01 11:41:00,88.5,68.6,29.96,SW,221,0.0,0.0,52,0.00,CLR,,0.00,WeatherDisplay:10.37,2013-08-01 16:41:00,
2013-08-01 11:46:00,88.7,69.4,29.96,SW,221,3.5,3.5,53,0.00,CLR,,0.00,WeatherDisplay:10.37,2013-08-01 16:46:00,
2013-08-01 11:52:00,89.0,69.1,29.96,SW,221,0.0,0.0,52,0.00,CLR,,0.00,WeatherDisplay:10.37,2013-08-01 16:52:00,
2013-08-01 11:57:00,89.4,68.3,29.96,SW,221,0.0,0.0,50,0.00,CLR,,0.00,WeatherDisplay:10.37,2013-08-01 16:57:00,
2013-08-01 12:03:00,89.6,67.9,29.96,SW,233,3.5,0.0,49,0.00,CLR,,0.00,WeatherDisplay:10.37,2013-08-01 17:03:00,
2013-08-01 12:09:00,89.9,67.6,29.96,SW,220,10.4,10.4,48,0.00,CLR,,0.00,WeatherDisplay:10.37,2013-08-01 17:09:00,
2013-08-01 12:15:00,90.4,68.0,29.96,South,191,6.0,6.0,48,0.00,CLR,,0.00,WeatherDisplay:10.37,2013-08-01 17:15:00,
2013-08-01 12:20:00,90.8,67.2,29.95,South,191,3.5,3.5,46,0.00,CLR,,0.00,WeatherDisplay:10.37,2013-08-01 17:20:00,
2013-08-01 12:25:00,91.5,67.8,29.95,South,191,1.0,1.0,46,0.00,CLR,,0.00,WeatherDisplay:10.37,2013-08-01 17:25:00,
2013-08-01 12:31:00,91.9,67.5,29.95,SSW,192,2.3,0.0,45,0.00,CLR,,0.00,WeatherDisplay:10.37,2013-08-01 17:31:00,
2013-08-01 12:36:00,92.3,67.9,29.95,SSW,192,5.8,5.8,45,0.00,CLR,,0.00,WeatherDisplay:10.37,2013-08-01 17:36:00,
2013-08-01 12:41:00,92.6,67.5,29.95,SSW,193,6.0,6.0,44,0.00,CLR,,0.00,WeatherDisplay:10.37,2013-08-01 17:41:00,
2013-08-01 12:48:00,92.8,67.7,29.95,South,190,2.3,2.3,44,0.00,CLR,,0.00,WeatherDisplay:10.37,2013-08-01 17:48:00,
2013-08-01 12:53:00,92.8,67.0,29.94,SSW,192,3.0,3.0,43,0.00,CLR,,0.00,WeatherDisplay:10.37,2013-08-01 17:53:00,
2013-08-01 12:58:00,92.9,67.1,29.94,SSW,195,0.0,0.3,43,0.00,CLR,,0.00,WeatherDisplay:10.37,2013-08-01 17:58:00,
2013-08-01 13:04:00,93.4,67.6,29.94,SSW,196,1.2,0.0,43,0.00,CLR,,0.00,WeatherDisplay:10.37,2013-08-01 18:04:00,
2013-08-01 13:09:00,94.2,67.6,29.94,SSW,195,6.0,6.0,42,0.00,CLR,,0.00,WeatherDisplay:10.37,2013-08-01 18:09:00,
2013-08-01 13:14:00,94.5,67.9,29.94,South,175,4.6,4.6,42,0.00,CLR,,0.00,WeatherDisplay:10.37,2013-08-01 18:14:00,
2013-08-01 13:22:00,94.8,67.4,29.93,SSE,166,0.0,0.0,41,0.00,CLR,,0.00,WeatherDisplay:10.37,2013-08-01 18:22:00,
2013-08-01 13:28:00,94.8,67.4,29.93,SSE,166,0.0,0.1,41,0.00,CLR,,0.00,WeatherDisplay:10.37,2013-08-01 18:28:00,
2013-08-01 13:33:00,95.2,68.5,29.93,SSE,153,8.0,8.0,42,0.00,CLR,,0.00,WeatherDisplay:10.37,2013-08-01 18:33:00,
2013-08-01 13:38:00,95.3,67.9,29.93,SE,126,8.1,8.1,41,0.00,CLR,,0.00,WeatherDisplay:10.37,2013-08-01 18:38:00,
2013-08-01 13:44:00,95.0,67.6,29.93,SE,126,0.0,0.0,41,0.00,CLR,,0.00,WeatherDisplay:10.37,2013-08-01 18:44:00,
2013-08-01 13:49:00,95.1,67.7,29.92,ESE,123,6.9,6.9,41,0.00,CLR,,0.00,WeatherDisplay:10.37,2013-08-01 18:49:00,
2013-08-01 13:55:00,95.0,66.2,29.92,ESE,123,0.0,0.0,39,0.00,CLR,,0.00,WeatherDisplay:10.37,2013-08-01 18:55:00,
2013-08-01 14:00:00,95.3,67.2,29.92,ESE,116,5.8,0.0,40,0.00,CLR,,0.00,WeatherDisplay:10.37,2013-08-01 19:00:00,
2013-08-01 14:06:00,96.0,67.0,29.92,ESE,110,1.2,0.0,39,0.00,CLR,,0.00,WeatherDisplay:10.37,2013-08-01 19:06:00,
2013-08-01 14:11:00,96.3,66.6,29.92,ESE,117,0.0,0.0,38,0.00,CLR,,0.00,WeatherDisplay:10.37,2013-08-01 19:11:00,
2013-08-01 14:17:00,96.8,67.0,29.91,SE,133,6.9,6.9,38,0.00,CLR,,0.00,WeatherDisplay:10.37,2013-08-01 19:17:00,
2013-08-01 14:23:00,96.9,66.3,29.91,SSE,157,6.9,6.9,37,0.00,CLR,,0.00,WeatherDisplay:10.37,2013-08-01 19:23:00,
2013-08-01 14:28:00,96.6,66.8,29.91,ESE,117,10.0,10.0,38,0.00,CLR,,0.00,WeatherDisplay:10.37,2013-08-01 19:28:00,
2013-08-01 14:34:00,96.5,66.0,29.91,SSE,165,5.8,5.8,37,0.00,CLR,,0.00,WeatherDisplay:10.37,2013-08-01 19:34:00,
2013-08-01 14:40:00,96.5,66.7,29.90,SSE,150,3.5,3.5,38,0.00,CLR,,0.00,WeatherDisplay:10.37,2013-08-01 19:40:00,
2013-08-01 14:45:00,96.3,66.6,29.90,SE,130,8.1,8.1,38,0.00,CLR,,0.00,WeatherDisplay:10.37,2013-08-01 19:45:00,
2013-08-01 14:50:00,96.4,66.7,29.90,SSE,157,4.6,4.6,38,0.00,CLR,,0.00,WeatherDisplay:10.37,2013-08-01 19:50:00,
2013-08-01 14:55:00,96.6,66.1,29.90,SSE,165,11.5,11.5,37,0.00,CLR,,0.00,WeatherDisplay:10.37,2013-08-01 19:55:00,
2013-08-01 15:00:00,96.7,66.1,29.90,SE,145,11.5,11.5,37,0.00,CLR,,0.00,WeatherDisplay:10.37,2013-08-01 20:00:00,
2013-08-01 15:06:00,96.6,66.1,29.89,South,174,11.5,11.5,37,0.00,CLR,,0.00,WeatherDisplay:10.37,2013-08-01 20:06:00,
2013-08-01 15:13:00,96.8,66.2,29.89,SE,138,1.0,1.0,37,0.00,CLR,,0.00,WeatherDisplay:10.37,2013-08-01 20:13:00,
2013-08-01 15:18:00,96.9,67.1,29.89,SE,139,5.0,5.0,38,0.00,CLR,,0.00,WeatherDisplay:10.37,2013-08-01 20:18:00,
2013-08-01 15:24:00,97.2,66.6,29.89,ESE,108,5.8,5.8,37,0.00,CLR,,0.00,WeatherDisplay:10.37,2013-08-01 20:24:00,
2013-08-01 15:30:00,97.2,66.6,29.89,East,84,0.0,0.0,37,0.00,CLR,,0.00,WeatherDisplay:10.37,2013-08-01 20:30:00,
2013-08-01 15:35:00,97.4,66.8,29.89,SE,140,11.5,11.5,37,0.00,CLR,,0.00,WeatherDisplay:10.37,2013-08-01 20:35:00,
2013-08-01 15:40:00,97.7,67.0,29.88,SSE,164,11.5,11.5,37,0.00,CLR,,0.00,WeatherDisplay:10.37,2013-08-01 20:40:00,
2013-08-01 15:41:00,97.7,67.0,29.88,SSE,167,9.2,9.2,37,0.00,CLR,,0.00,WeatherDisplay:10.37,2013-08-01 20:41:00,
2013-08-01 15:46:00,97.8,67.1,29.88,SE,130,5.8,5.8,37,0.00,CLR,,0.00,WeatherDisplay:10.37,2013-08-01 20:46:00,
2013-08-01 15:51:00,98.2,65.9,29.88,ESE,105,11.0,11.0,35,0.00,CLR,,0.00,WeatherDisplay:10.37,2013-08-01 20:51:00,
2013-08-01 15:57:00,98.4,66.0,29.88,SE,139,10.4,10.4,35,0.00,CLR,,0.00,WeatherDisplay:10.37,2013-08-01 20:57:00,
2013-08-01 16:02:00,98.2,65.9,29.88,SE,140,3.5,3.5,35,0.00,CLR,,0.00,WeatherDisplay:10.37,2013-08-01 21:02:00,
2013-08-01 16:07:00,98.2,65.9,29.87,SE,126,0.0,0.0,35,0.00,CLR,,0.00,WeatherDisplay:10.37,2013-08-01 21:07:00,
2013-08-01 16:12:00,98.5,66.9,29.87,SE,125,8.1,8.1,36,0.00,CLR,,0.00,WeatherDisplay:10.37,2013-08-01 21:12:00,
2013-08-01 16:17:00,98.5,66.1,29.87,SSE,150,11.5,11.5,35,0.00,CLR,,0.00,WeatherDisplay:10.37,2013-08-01 21:17:00,
2013-08-01 16:23:00,98.1,65.8,29.87,ESE,109,5.8,5.8,35,0.00,CLR,,0.00,WeatherDisplay:10.37,2013-08-01 21:23:00,
2013-08-01 16:29:00,98.0,65.7,29.87,ESE,108,6.0,6.0,35,0.00,CLR,,0.00,WeatherDisplay:10.37,2013-08-01 21:29:00,
2013-08-01 16:35:00,98.0,65.7,29.86,ESE,106,0.0,0.0,35,0.00,CLR,,0.00,WeatherDisplay:10.37,2013-08-01 21:35:00,
2013-08-01 16:40:00,98.0,65.7,29.86,ESE,106,0.0,0.0,35,0.00,CLR,,0.00,WeatherDisplay:10.37,2013-08-01 21:40:00,
2013-08-01 16:45:00,98.4,66.0,29.86,ESE,107,2.3,2.3,35,0.00,CLR,,0.00,WeatherDisplay:10.37,2013-08-01 21:45:00,
2013-08-01 16:50:00,98.7,66.3,29.86,ESE,118,4.6,4.6,35,0.00,CLR,,0.00,WeatherDisplay:10.37,2013-08-01 21:50:00,
2013-08-01 16:56:00,98.6,65.4,29.86,SE,140,11.5,11.5,34,0.00,CLR,,0.00,WeatherDisplay:10.37,2013-08-01 21:56:00,
2013-08-01 17:02:00,98.4,66.0,29.86,SE,140,3.5,3.5,35,0.00,CLR,,0.00,WeatherDisplay:10.37,2013-08-01 22:02:00,
2013-08-01 17:07:00,98.7,65.5,29.85,SE,132,2.3,0.0,34,0.00,CLR,,0.00,WeatherDisplay:10.37,2013-08-01 22:07:00,
2013-08-01 17:12:00,98.7,66.3,29.86,ESE,106,5.8,5.8,35,0.00,CLR,,0.00,WeatherDisplay:10.37,2013-08-01 22:12:00,
2013-08-01 17:17:00,98.3,65.9,29.85,ESE,113,10.4,10.4,35,0.00,CLR,,0.00,WeatherDisplay:10.37,2013-08-01 22:17:00,
2013-08-01 17:22:00,98.4,66.0,29.85,ESE,112,1.2,0.0,35,0.00,CLR,,0.00,WeatherDisplay:10.37,2013-08-01 22:22:00,
2013-08-01 17:28:00,98.6,66.2,29.85,ESE,115,8.1,8.1,35,0.00,CLR,,0.00,WeatherDisplay:10.37,2013-08-01 22:28:00,
2013-08-01 17:33:00,98.4,66.0,29.85,ESE,113,2.0,0.0,35,0.00,CLR,,0.00,WeatherDisplay:10.37,2013-08-01 22:33:00,
2013-08-01 17:38:00,98.5,66.1,29.85,East,101,3.5,0.0,35,0.00,CLR,,0.00,WeatherDisplay:10.37,2013-08-01 22:38:00,
2013-08-01 17:43:00,98.5,66.1,29.84,ESE,105,6.0,6.0,35,0.00,CLR,,0.00,WeatherDisplay:10.37,2013-08-01 22:43:00,
2013-08-01 17:48:00,98.5,66.1,29.84,SE,132,3.5,3.5,35,0.00,CLR,,0.00,WeatherDisplay:10.37,2013-08-01 22:48:00,
2013-08-01 17:53:00,98.6,65.4,29.84,ESE,121,6.9,6.9,34,0.00,CLR,,0.00,WeatherDisplay:10.37,2013-08-01 22:53:00,
2013-08-01 17:59:00,98.2,65.9,29.84,ESE,115,3.5,3.5,35,0.00,CLR,,0.00,WeatherDisplay:10.37,2013-08-01 22:59:00,
2013-08-01 18:04:00,98.2,65.9,29.84,SE,136,7.0,7.0,35,0.00,CLR,,0.00,WeatherDisplay:10.37,2013-08-01 23:04:00,
2013-08-01 18:10:00,98.2,65.9,29.84,SE,128,5.8,5.8,35,0.00,CLR,,0.00,WeatherDisplay:10.37,2013-08-01 23:10:00,
2013-08-01 18:15:00,98.2,65.9,29.84,SE,127,3.5,3.5,35,0.00,CLR,,0.00,WeatherDisplay:10.37,2013-08-01 23:15:00,
2013-08-01 18:20:00,98.3,65.9,29.84,SE,126,4.6,4.6,35,0.00,CLR,,0.00,WeatherDisplay:10.37,2013-08-01 23:20:00,
2013-08-01 18:24:00,98.2,65.9,29.84,SE,124,0.0,0.0,35,0.00,CLR,,0.00,WeatherDisplay:10.37,2013-08-01 23:24:00,
2013-08-01 18:30:00,98.2,65.9,29.83,ESE,123,0.0,0.0,35,0.00,CLR,,0.00,WeatherDisplay:10.37,2013-08-01 23:30:00,
2013-08-01 18:34:00,98.2,65.9,29.83,SE,130,6.9,6.9,35,0.00,CLR,,0.00,WeatherDisplay:10.37,2013-08-01 23:34:00,
2013-08-01 18:40:00,98.0,65.7,29.83,SE,142,9.0,9.0,35,0.00,CLR,,0.00,WeatherDisplay:10.37,2013-08-01 23:40:00,
2013-08-01 18:45:00,98.0,65.7,29.83,SE,144,3.5,0.0,35,0.00,CLR,,0.00,WeatherDisplay:10.37,2013-08-01 23:45:00,
2013-08-01 18:51:00,98.0,65.7,29.83,SE,142,0.0,0.0,35,0.00,CLR,,0.00,WeatherDisplay:10.37,2013-08-01 23:51:00,
2013-08-01 18:56:00,97.8,66.3,29.83,SE,129,3.5,3.5,36,0.00,CLR,,0.00,WeatherDisplay:10.37,2013-08-01 23:56:00,
2013-08-01 19:01:00,97.6,65.3,29.83,SE,128,0.0,0.0,35,0.00,CLR,,0.00,WeatherDisplay:10.37,2013-08-02 00:01:00,
2013-08-01 19:06:00,97.4,66.0,29.83,SE,126,7.0,7.0,36,0.00,CLR,,0.00,WeatherDisplay:10.37,2013-08-02 00:06:00,
2013-08-01 19:12:00,97.2,65.8,29.83,SE,126,7.0,7.0,36,0.00,CLR,,0.00,WeatherDisplay:10.37,2013-08-02 00:12:00,
2013-08-01 19:18:00,97.1,65.7,29.83,SE,133,4.6,0.0,36,0.00,CLR,,0.00,WeatherDisplay:10.37,2013-08-02 00:18:00,
2013-08-01 19:23:00,97.1,65.7,29.83,SE,136,9.2,9.2,36,0.00,CLR,,0.00,WeatherDisplay:10.37,2013-08-02 00:23:00,
2013-08-01 19:29:00,96.9,65.5,29.83,SE,134,9.2,9.2,36,0.00,CLR,,0.00,WeatherDisplay:10.37,2013-08-02 00:29:00,
2013-08-01 19:34:00,96.7,65.4,29.83,SE,134,5.8,5.8,36,0.00,CLR,,0.00,WeatherDisplay:10.37,2013-08-02 00:34:00,
2013-08-01 19:39:00,96.6,65.3,29.83,SE,134,6.0,6.0,36,0.00,CLR,,0.00,WeatherDisplay:10.37,2013-08-02 00:39:00,
2013-08-01 19:45:00,96.3,65.8,29.83,SE,133,0.0,0.0,37,0.00,CLR,,0.00,WeatherDisplay:10.37,2013-08-02 00:45:00,
2013-08-01 19:50:00,96.1,65.6,29.83,SE,133,4.0,4.0,37,0.00,CLR,,0.00,WeatherDisplay:10.37,2013-08-02 00:50:00,
2013-08-01 19:55:00,95.8,66.1,29.83,SE,134,3.0,3.0,38,0.00,CLR,,0.00,WeatherDisplay:10.37,2013-08-02 00:55:00,
2013-08-01 20:00:00,95.6,65.9,29.83,SE,133,1.2,1.2,38,0.00,CLR,,0.00,WeatherDisplay:10.37,2013-08-02 01:00:00,
2013-08-01 20:06:00,95.3,65.7,29.83,SE,134,0.0,0.0,38,0.00,CLR,,0.00,WeatherDisplay:10.37,2013-08-02 01:06:00,
2013-08-01 20:11:00,94.9,66.1,29.83,SE,134,5.8,5.8,39,0.00,CLR,,0.00,WeatherDisplay:10.37,2013-08-02 01:11:00,
2013-08-01 20:16:00,94.4,65.6,29.83,SE,134,2.3,2.3,39,0.00,CLR,,0.00,WeatherDisplay:10.37,2013-08-02 01:16:00,
2013-08-01 20:22:00,93.9,65.9,29.83,SE,133,3.0,3.0,40,0.00,CLR,,0.00,WeatherDisplay:10.37,2013-08-02 01:22:00,
2013-08-01 20:27:00,93.4,66.2,29.84,SE,134,0.0,0.0,41,0.00,CLR,,0.00,WeatherDisplay:10.37,2013-08-02 01:27:00,
2013-08-01 20:33:00,93.1,65.9,29.84,SE,134,0.0,0.0,41,0.00,CLR,,0.00,WeatherDisplay:10.37,2013-08-02 01:33:00,
2013-08-01 20:38:00,92.7,66.2,29.84,SE,133,0.0,0.0,42,0.00,CLR,,0.00,WeatherDisplay:10.37,2013-08-02 01:38:00,
2013-08-01 20:42:00,92.3,65.9,29.84,SE,134,1.2,1.2,42,0.00,CLR,,0.00,WeatherDisplay:10.37,2013-08-02 01:42:00,
2013-08-01 20:48:00,92.0,66.3,29.84,SE,134,0.0,0.0,43,0.00,CLR,,0.00,WeatherDisplay:10.37,2013-08-02 01:48:00,
2013-08-01 20:53:00,91.7,66.0,29.84,SE,134,0.0,0.0,43,0.00,CLR,,0.00,WeatherDisplay:10.37,2013-08-02 01:53:00,
2013-08-01 21:00:00,91.4,66.4,29.85,SE,134,0.0,0.0,44,0.00,CLR,,0.00,WeatherDisplay:10.37,2013-08-02 02:00:00,
2013-08-01 21:05:00,91.2,66.2,29.85,SE,134,0.0,0.0,44,0.00,CLR,,0.00,WeatherDisplay:10.37,2013-08-02 02:05:00,
2013-08-01 21:10:00,90.9,66.0,29.85,SE,134,0.0,0.0,44,0.00,CLR,,0.00,WeatherDisplay:10.37,2013-08-02 02:10:00,
2013-08-01 21:17:00,90.5,66.3,29.85,SE,134,0.0,0.0,45,0.00,CLR,,0.00,WeatherDisplay:10.37,2013-08-02 02:17:00,
2013-08-01 21:22:00,90.3,66.1,29.86,SE,134,0.0,0.0,45,0.00,CLR,,0.00,WeatherDisplay:10.37,2013-08-02 02:22:00,
2013-08-01 21:27:00,90.1,65.9,29.86,SE,134,0.0,0.0,45,0.00,CLR,,0.00,WeatherDisplay:10.37,2013-08-02 02:27:00,
2013-08-01 21:33:00,89.9,66.3,29.86,SE,134,0.0,0.0,46,0.00,CLR,,0.00,WeatherDisplay:10.37,2013-08-02 02:33:00,
2013-08-01 21:38:00,89.6,66.1,29.86,SE,134,0.0,0.0,46,0.00,CLR,,0.00,WeatherDisplay:10.37,2013-08-02 02:38:00,
2013-08-01 21:43:00,89.4,65.9,29.86,SE,134,0.0,0.0,46,0.00,CLR,,0.00,WeatherDisplay:10.37,2013-08-02 02:43:00,
2013-08-01 21:48:00,89.3,66.4,29.86,SE,134,0.0,0.0,47,0.00,CLR,,0.00,WeatherDisplay:10.37,2013-08-02 02:48:00,
2013-08-01 21:54:00,89.0,66.2,29.86,SE,134,0.0,0.0,47,0.00,CLR,,0.00,WeatherDisplay:10.37,2013-08-02 02:54:00,
2013-08-01 21:59:00,88.7,66.5,29.87,SE,134,0.0,0.0,48,0.00,CLR,,0.00,WeatherDisplay:10.37,2013-08-02 02:59:00,
2013-08-01 22:04:00,88.5,66.3,29.87,SE,134,3.5,3.5,48,0.00,CLR,,0.00,WeatherDisplay:10.37,2013-08-02 03:04:00,
2013-08-01 22:09:00,88.2,66.0,29.87,SE,134,2.0,2.0,48,0.00,CLR,,0.00,WeatherDisplay:10.37,2013-08-02 03:09:00,
2013-08-01 22:14:00,87.9,66.4,29.87,SE,134,6.0,6.0,49,0.00,CLR,,0.00,WeatherDisplay:10.37,2013-08-02 03:14:00,
2013-08-01 22:19:00,87.8,66.3,29.87,SE,134,3.5,3.5,49,0.00,CLR,,0.00,WeatherDisplay:10.37,2013-08-02 03:19:00,
2013-08-01 22:25:00,87.6,65.5,29.87,SE,134,3.5,3.5,48,0.00,CLR,,0.00,WeatherDisplay:10.37,2013-08-02 03:25:00,
2013-08-01 22:30:00,87.6,65.5,29.88,SE,134,0.0,0.0,48,0.00,CLR,,0.00,WeatherDisplay:10.37,2013-08-02 03:30:00,
2013-08-01 22:36:00,87.5,66.0,29.88,SE,134,0.0,0.0,49,0.00,CLR,,0.00,WeatherDisplay:10.37,2013-08-02 03:36:00,
2013-08-01 22:41:00,87.5,66.0,29.88,SE,134,1.2,1.2,49,0.00,CLR,,0.00,WeatherDisplay:10.37,2013-08-02 03:41:00,
2013-08-01 22:46:00,87.5,65.4,29.87,SE,134,3.5,3.5,48,0.00,CLR,,0.00,WeatherDisplay:10.37,2013-08-02 03:46:00,
2013-08-01 22:52:00,87.3,65.8,29.87,SSE,150,14.0,14.0,49,0.00,CLR,,0.00,WeatherDisplay:10.37,2013-08-02 03:52:00,
2013-08-01 22:57:00,87.3,65.8,29.88,SSE,163,7.0,7.0,49,0.00,CLR,,0.00,WeatherDisplay:10.37,2013-08-02 03:57:00,
2013-08-01 23:01:00,87.3,65.8,29.88,SSE,161,9.2,9.2,49,0.00,CLR,,0.00,WeatherDisplay:10.37,2013-08-02 04:01:00,
2013-08-01 23:02:00,87.3,65.8,29.88,SSE,161,9.2,9.2,49,0.00,CLR,,0.00,WeatherDisplay:10.37,2013-08-02 04:02:00,
2013-08-01 23:04:00,87.3,65.8,29.88,SSE,161,10.4,10.4,49,0.00,CLR,,0.00,WeatherDisplay:10.37,2013-08-02 04:04:00,
2013-08-01 23:09:00,87.2,66.3,29.88,South,169,10.4,10.4,50,0.00,CLR,,0.00,WeatherDisplay:10.37,2013-08-02 04:09:00,
2013-08-01 23:14:00,87.2,66.3,29.88,South,171,5.8,5.8,50,0.00,CLR,,0.00,WeatherDisplay:10.37,2013-08-02 04:14:00,
2013-08-01 23:16:00,87.1,66.2,29.88,South,171,4.0,4.0,50,0.00,CLR,,0.00,WeatherDisplay:10.37,2013-08-02 04:16:00,
2013-08-01 23:21:00,87.0,66.1,29.89,South,171,3.5,3.5,50,0.00,CLR,,0.00,WeatherDisplay:10.37,2013-08-02 04:21:00,
2013-08-01 23:26:00,86.8,65.9,29.89,South,169,6.9,6.9,50,0.00,CLR,,0.00,WeatherDisplay:10.37,2013-08-02 04:26:00,
2013-08-01 23:31:00,86.6,66.3,29.88,SSE,163,5.8,5.8,51,0.00,CLR,,0.00,WeatherDisplay:10.37,2013-08-02 04:31:00,
2013-08-01 23:36:00,86.3,66.6,29.89,SSE,164,6.9,6.9,52,0.00,CLR,,0.00,WeatherDisplay:10.37,2013-08-02 04:36:00,
2013-08-01 23:41:00,86.1,67.0,29.88,SSE,167,10.4,10.4,53,0.00,CLR,,0.00,WeatherDisplay:10.37,2013-08-02 04:41:00,
2013-08-01 23:46:00,86.0,66.9,29.89,SSE,164,10.4,10.4,53,0.00,CLR,,0.00,WeatherDisplay:10.37,2013-08-02 04:46:00,
2013-08-01 23:51:00,85.8,66.7,29.89,SSE,164,3.5,3.5,53,0.00,CLR,,0.00,WeatherDisplay:10.37,2013-08-02 04:51:00,
2013-08-01 23:56:00,85.7,67.1,29.90,SSE,165,5.0,5.0,54,0.00,CLR,,0.00,WeatherDisplay:10.37,2013-08-02 04:56:00,